Weather in Barnaul

Russia / Altai Krai     53°21′18″N   83°46′11″E
temp.,
°C
wind,
m/s
gust,
m/s
humid.,
%
clouds,
%
prec.,
mm/h
press.,
hPa
HPBL,
m
8 march, mon
mon801:00−7sse2396100 0.0 102238
04:00−8sse339888 0.0 102078
07:00−8s349493 0.0 101881
10:00−5s489193 0.0 1015236
13:00−1ssw5148692 0.0 1013724
16:00+1sw91876100 0.0 1011840
19:000sw81882100 0.0 1012889
22:00+1sw81686100 0.0 1013834
9 march, tue
tue901:00−1wsw51396100 0.8 1016735
04:00−9wnw5119093 0.3 1022327
07:00−14wsw349382 0.3 102785
10:00−12sw47901 0.0 1029267
13:00−8ssw578813 0.0 1029393
16:00−6ssw46850 0.0 1027493
19:00−10s349210 0.0 102680
22:00−12s349296 0.0 102549
10 march, wed
wed1001:00−12ssw349067 0.0 102345
04:00−12ssw33940 0.0 102134
07:00−11ssw239721 0.0 102124
10:00−7ssw359686 0.0 1019208
13:00−2s359793 0.1 1017416
16:000sse249988 0.0 1014258
19:00−1se369393 0.0 1010168
22:00−3sse4990100 0.0 1007197
11 march, thu
thu1101:00−3s41090100 0.0 1004202
04:00+1sw91798100 0.5 1004817
07:00+1wsw71596100 0.6 1007862
10:00−6wsw7138383 0.0 1012632
13:00−4wsw588591 0.0 1015628
16:00−4sw61086100 0.0 1017806
19:00−4sw61287100 0.1 1019942
22:00−7sw51385100 0.0 1022485
12 march, fri
fri1201:00−9ssw5158867 0.0 1021437
04:00−6ssw8198254 0.0 1016890
07:00−4sw11199076 0.5 10151254
10:00−9wsw71473100 0.4 1019968
13:00−8wsw71371100 0.4 10211072
16:00−8wsw7117331 0.0 10221046
19:00−12wsw4108640 0.0 1023497
22:00−16w3119230 0.0 1025362